This demonstration page uses our WeatherBlox Daily Observations layout. Learn more.

36.17497, -115.13722

Hourly Observations for January 22, 2020

Temp ( °F °C ) Dew Point ( °F °C ) Humidity (%) Winds ( mph kmh ) Pressure ( in mb ) Visibility ( mi km ) Precip ( " mm )
12:53 am 00:53 Clear 46 7.8 33 0.6 61 61 WNW 6 9 30.14 1021 10 16.0934 0 0
1:53 am 01:53 Clear 44 6.7 32 0 63 63 NNW 5 7 30.16 1021 10 16.0934 0 0
2:53 am 02:53 Clear 43 6.1 32 0 65 65 NNW 3 6 30.17 1022 10 16.0934 0 0
3:53 am 03:53 Clear 44 6.7 32 0 63 63 WNW 6 9 30.16 1022 10 16.0934 0 0
4:53 am 04:53 Clear 43 6.1 32 0 65 65 NW 6 9 30.16 1022 10 16.0934 0 0
5:53 am 05:53 Clear 42 5.6 32 0 68 68 WNW 6 9 30.19 1022 10 16.0934 0 0
6:53 am 06:53 Sunny 42 5.6 32 0 68 68 NNW 7 11 30.21 1023 10 16.0934 0 0
7:53 am 07:53 Sunny 45 7.2 33 0.6 63 63 NW 6 9 30.22 1024 10 16.0934 0 0
8:53 am 08:53 Sunny 51 10.6 33 0.6 50 50 NNW 3 6 30.24 1024 10 16.0934 0 0
9:53 am 09:53 Sunny 53 11.7 35 1.7 51 51 Calm 30.26 1025 10 16.0934 0 0
10:53 am 10:53 Mostly Cloudy 55 12.8 38 3.3 53 53 Calm 30.24 1024 10 16.0934 0 0
11:53 am 11:53 Mostly Sunny 56 13.3 38 3.3 51 51 NNE 5 7 30.23 1024 10 16.0934 0 0
12:53 pm 12:53 Sunny 59 15 37 2.8 44 44 NNE 5 7 30.2 1023 10 16.0934 0 0
1:53 pm 13:53 Sunny 59 15 37 2.8 44 44 Calm 30.19 1022 10 16.0934 0 0
2:53 pm 14:53 Sunny 60 15.6 37 2.8 42 42 Calm 30.18 1022 10 16.0934 0 0
3:53 pm 15:53 Sunny 61 16.1 37 2.8 41 41 E 3 6 30.17 1022 10 16.0934 0 0
4:53 pm 16:53 Sunny 58 14.4 37 2.8 46 46 E 5 7 30.19 1022 10 16.0934 0 0
5:53 pm 17:53 Clear 56 13.3 37 2.8 49 49 ESE 3 6 30.21 1023 10 16.0934 0 0
6:53 pm 18:53 Clear 55 12.8 37 2.8 51 51 Calm 30.22 1024 10 16.0934 0 0
7:53 pm 19:53 Clear 51 10.6 36 2.2 56 56 WNW 5 7 30.24 1024 10 16.0934 0 0
8:53 pm 20:53 Clear 50 10 36 2.2 59 59 NW 6 9 30.24 1024 10 16.0934 0 0
9:53 pm 21:53 Clear 49 9.4 36 2.2 61 61 WNW 7 11 30.25 1024 10 16.0934 0 0
10:53 pm 22:53 Clear 48 8.9 36 2.2 63 63 W 3 6 30.26 1025 10 16.0934 0 0
11:53 pm 23:53 Clear 46 7.8 35 1.7 66 66 W 3 6 30.27 1025 10 16.0934 0 0

Powered by AerisWeather